Change the Weather History Date:

Sunday, February 24, 2013

  Actual Average Record
Temperature  
Mean Temperature 29 °F 30 °F  
Max Temperature 31 °F 38 °F 67 °F (1961)
Min Temperature 26 °F 22 °F -10 °F (2015)
Degree Days  
Heating Degree Days 36 35  
Month to date heating degree days 956 889  
Since 1 July heating degree days 4316 4512  
Cooling Degree Days 0 0  
Month to date cooling degree days 0 0  
Year to date cooling degree days 0 0  
Moisture  
Dew Point 21 °F    
Average Humidity 74    
Maximum Humidity 84    
Minimum Humidity 63    
Precipitation  
Precipitation 0.01 in 0.08 in 0.62 in (1975)
Month to date precipitation 1.37 1.81  
Year to date precipitation 3.18 4.36  
Snow  
Snow 0.30 in 0.50 in - ()
Month to date snowfall 19.3 10.9  
Since 1 July snowfall 59.4 46.9  
Snow Depth 0.00 in    
Sea Level Pressure  
Sea Level Pressure 30.02 in    
Wind  
Wind Speed 6 mph (WNW)    
Max Wind Speed 17 mph    
Max Gust Speed 22 mph    
Visibility 8 miles    
Events Snow    
T = Trace of Precipitation, MM = Missing Value Source: NWS Daily Summary

Daily Weather History Graph

Daily Weather History Graph

Search for Another Location

Airport or City:

Trip Planner

Search our weather history database for the weather conditions in past years. The results will help you decide how hot, cold, wet, or windy it might be!

Date:

Astronomy

Feb. 24, 2013 Rise Set
Actual Time 7:04 AM EST 6:07 PM EST
Civil Twilight 6:36 AM EST 6:35 PM EST
Nautical Twilight 6:04 AM EST 7:07 PM EST
Astronomical Twilight 5:32 AM EST 7:39 PM EST
Moon 5:17 PM EST (2/24) 6:00 AM EST (2/24)
Length of Visible Light 11h 59m
Length of Day
11h 03m
Waxing Gibbous, 99% of the Moon is Illuminated
Feb 24
Waxing Gibbous
Feb 25
Full
Mar 4
Last Quarter
Mar 11
New
Mar 19
First Quarter

Hourly Weather History & Observations

Time (EST) Temp. Windchill Dew Point Humidity Pressure Visibility Wind Dir Wind Speed Gust Speed Precip Events Conditions
12:51 AM 27.0 °F - 23.0 °F 85% 29.90 in 8.0 mi Calm Calm - N/A   Overcast
1:51 AM 28.0 °F 24.2 °F 23.0 °F 81% 29.90 in 9.0 mi NW 3.5 mph - N/A   Overcast
2:51 AM 28.0 °F 24.2 °F 21.9 °F 78% 29.91 in 9.0 mi WNW 3.5 mph - 0.00 in Snow Light Snow
3:51 AM 28.0 °F 22.8 °F 21.9 °F 78% 29.92 in 7.0 mi WNW 4.6 mph - 0.00 in Snow Light Snow
4:51 AM 28.0 °F 20.8 °F 21.0 °F 75% 29.93 in 8.0 mi NW 6.9 mph - 0.00 in Snow Light Snow
5:51 AM 27.0 °F 18.0 °F 19.0 °F 72% 29.93 in 9.0 mi NW 9.2 mph - 0.00 in Snow Light Snow
6:51 AM 27.0 °F 21.6 °F 19.0 °F 72% 29.95 in 9.0 mi West 4.6 mph - 0.00 in Snow Light Snow
7:51 AM 27.0 °F 19.5 °F 19.9 °F 75% 29.97 in 7.0 mi WNW 6.9 mph - 0.00 in Snow Light Snow
8:15 AM 26.6 °F 19.1 °F 19.4 °F 74% 29.93 in 2.0 mi WNW 6.9 mph - 0.00 in Snow Light Snow
8:51 AM 26.1 °F 20.5 °F 19.9 °F 78% 29.99 in 1.5 mi WNW 4.6 mph - 0.00 in Snow Light Snow
9:51 AM 26.1 °F 17.6 °F 21.0 °F 81% 30.01 in 1.5 mi WNW 8.1 mph - 0.00 in Snow Light Snow
10:12 AM 26.6 °F 17.5 °F 21.2 °F 80% 29.96 in 3.0 mi WNW 9.2 mph - 0.00 in Snow Light Snow
10:51 AM 28.0 °F 18.6 °F 21.0 °F 75% 30.01 in 5.0 mi West 10.4 mph - 0.00 in Snow Light Snow
11:25 AM 28.4 °F 18.0 °F 19.4 °F 69% 29.97 in 9.0 mi WSW 12.7 mph - 0.00 in Snow Light Snow
11:51 AM 28.9 °F 19.2 °F 19.0 °F 67% 30.03 in 10.0 mi West 11.5 mph - 0.00 in Snow Light Snow
12:51 PM 28.9 °F 19.8 °F 19.0 °F 67% 30.03 in 9.0 mi West 10.4 mph - 0.00 in Snow Light Snow
1:51 PM 30.0 °F 20.5 °F 19.9 °F 66% 30.03 in 9.0 mi WNW 11.5 mph - 0.00 in Snow Light Snow
2:51 PM 30.9 °F 21.2 °F 19.0 °F 61% 30.04 in 9.0 mi West 12.7 mph - 0.00 in Snow Light Snow
3:51 PM 30.9 °F 21.2 °F 19.0 °F 61% 30.06 in 10.0 mi West 12.7 mph - 0.00 in   Overcast
4:26 PM 30.2 °F 22.6 °F 19.4 °F 64% 30.02 in 10.0 mi West 8.1 mph - N/A   Overcast
4:51 PM 30.9 °F 22.8 °F 19.0 °F 61% 30.07 in 10.0 mi WNW 9.2 mph - N/A   Overcast
5:20 PM 30.2 °F 20.8 °F 19.4 °F 64% 30.04 in 10.0 mi WNW 11.5 mph 17.3 mph N/A   Overcast
5:51 PM 30.0 °F 23.2 °F 21.0 °F 69% 30.09 in 9.0 mi WNW 6.9 mph - 0.00 in Snow Light Snow
6:51 PM 30.0 °F 24.1 °F 21.0 °F 69% 30.12 in 9.0 mi West 5.8 mph - 0.00 in   Overcast
7:18 PM 28.4 °F 24.6 °F 21.2 °F 74% 30.09 in 10.0 mi WSW 3.5 mph - N/A   Mostly Cloudy
7:51 PM 28.9 °F - 21.0 °F 72% 30.14 in 10.0 mi Calm Calm - N/A   Mostly Cloudy
8:51 PM 28.9 °F - 21.9 °F 75% 30.15 in 10.0 mi Calm Calm - N/A   Overcast
9:07 PM 28.4 °F - 21.2 °F 74% 30.10 in 6.0 mi Calm Calm - 0.00 in Snow Light Snow
9:51 PM 28.9 °F - 23.0 °F 78% 30.15 in 9.0 mi Calm Calm - 0.00 in   Overcast
10:51 PM 28.9 °F - 23.0 °F 78% 30.14 in 8.0 mi Calm Calm - 0.00 in Snow Light Snow
11:22 PM 28.4 °F 24.6 °F 21.2 °F 74% 30.10 in 8.0 mi SW 3.5 mph - 0.00 in Snow Light Snow
11:51 PM 27.0 °F - 21.9 °F 81% 30.15 in 9.0 mi Calm Calm - 0.00 in   Mostly Cloudy